Dewpoint
33 39 40 41 40 36 37 43 45 45 43 40 39 38 37 37 37 38 37 37 36 36 35 36 36 35 35 35 35 35 34 35 35 36 38 38 37 36 37 37 40 39 40
36 38 39 41 42 39 36 37 39 43 43 41 39 38 37 36 37 36 36 34 35 35 36 35 34 33 33 35 35 34 35 37 37 36 36 36 37 37 36 37 39 38 38
34 37 40 41 43 40 36 36 36 39 41 40 39 38 37 36 35 35 34 33 33 34 35 35 34 33 33 33 34 35 37 38 37 37 37 37 38 37 36 38 38 38 38
34 36 41 43 43 42 40 36 36 37 39 39 38 38 37 35 34 34 33 32 32 32 34 33 32 33 31 30 34 35 36 37 37 37 38 37 37 38 38 38 38 40 41
31 35 42 44 43 41 42 39 36 36 37 38 37 37 36 35 33 32 32 32 30 30 31 31 33 34 36 36 37 38 38 38 38 37 37 37 35 35 35 37 39 40 40
29 30 38 44 43 42 43 44 39 36 36 37 36 36 35 33 43 44 37 32 31 30 31 30 29 40 36 39 41 42 41 38 37 37 38 36 35 36 37 38 41 42 40
29 30 34 41 42 40 43 45 45 41 36 36 34 34 34 33 46 47 45 32 32 30 31 32 30 30 41 35 36 38 39 40 40 38 37 36 36 38 40 41 42 43 44
30 30 33 39 39 38 39 44 45 45 36 36 33 33 33 32 47 47 46 33 33 32 31 32 34 33 35 36 35 35 37 37 38 38 37 38 39 40 43 45 45 45 46
30 31 38 38 36 37 38 43 44 45 42 36 33 32 32 31 47 47 40 33 33 33 34 34 35 35 37 37 36 37 38 39 41 41 42 43 44 45 46 46 45 44 42
30 38 38 37 37 36 35 37 44 46 45 36 32 32 38 38 47 47 39 33 32 34 34 34 44 36 38 39 37 38 38 39 37 37 38 41 43 44 46 46 45 44 44
32 37 37 37 37 37 34 32 44 46 46 37 31 31 33 38 42 47 43 32 33 33 33 34 36 42 40 40 40 40 41 40 38 38 40 39 43 43 44 45 46 46 46
32 36 37 37 36 36 30 34 42 45 45 39 30 30 32 37 45 47 46 40 40 31 32 34 41 44 41 41 41 42 42 40 38 38 37 40 42 42 42 44 46 49 51
30 33 37 37 36 33 28 35 39 44 44 40 30 30 32 37 42 48 47 45 40 34 37 42 43 42 41 40 42 40 40 39 38 38 37 41 41 41 42 45 47 50 53
31 34 38 38 36 32 35 35 42 43 43 40 30 30 32 37 40 42 40 41 41 38 40 39 40 40 40 40 40 42 38 37 38 37 39 41 40 41 42 45 46 49 53
31 37 38 36 33 36 36 40 42 44 44 38 31 30 33 35 38 41 40 38 38 39 39 38 39 39 38 38 38 37 37 37 38 38 40 40 40 41 42 44 46 50 51
34 38 38 36 35 38 39 40 45 46 46 44 40 33 33 38 44 44 43 42 43 43 39 37 36 37 37 35 35 35 36 36 37 38 42 40 40 41 42 43 46 50 51
39 39 38 38 37 39 40 41 41 43 46 42 42 41 40 41 44 45 45 44 43 40 37 36 36 37 36 35 34 34 35 36 36 38 42 40 40 41 42 43 44 46 51
41 40 39 39 39 39 41 41 41 40 38 38 43 42 44 44 44 44 44 42 39 38 37 37 36 35 35 34 34 35 35 36 37 40 42 41 41 41 41 42 43 44 49
40 39 39 39 39 40 42 40 39 37 36 37 39 41 43 44 43 43 42 37 37 37 37 35 35 35 35 35 35 36 37 40 40 40 42 41 41 41 41 41 43 43 46
40 39 38 38 41 40 39 38 37 38 38 37 38 38 40 40 39 37 36 35 35 37 36 35 35 35 35 36 36 37 38 39 38 39 42 42 41 41 41 41 42 42 44
39 38 39 40 40 39 39 39 38 38 38 38 38 39 39 37 36 35 35 35 34 34 34 34 35 34 36 36 36 37 37 38 38 38 41 41 41 40 41 41 41 42 43
38 38 39 38 39 39 38 38 38 37 37 37 37 38 39 36 35 34 34 34 34 34 34 34 34 33 35 36 35 37 37 38 38 38 40 41 40 40 41 41 41 41 42
38 38 38 39 39 39 38 37 36 36 37 37 36 36 34 35 34 34 34 34 34 34 34 34 33 32 33 34 36 38 38 38 39 39 41 40 40 40 40 40 40 41 41
39 38 37 38 38 38 38 38 38 37 36 36 35 34 33 33 33 34 34 35 35 35 34 35 35 34 33 34 37 40 40 39 40 40 41 41 41 40 40 40 40 41 41
39 39 38 38 37 37 36 35 34 33 32 32 32 32 33 33 34 36 37 37 36 36 34 36 35 35 36 38 40 39 38 38 38 39 40 42 40 40 40 40 40 41 41
37 36 36 36 35 35 34 33 32 31 31 31 32 32 32 33 35 35 35 35 35 36 34 35 36 37 36 39 38 38 39 39 40 40 41 41 40 40 40 40 40 41 41
Lifted_Index
3 3 3 4 5 6 7 7 7 7 8 9 9 9 10 10 10 10 10 10 10 11 12 14 15 15 16 16 17 17 17 17 17 16 16 16 16 16 16 17 17 16 16
1 2 2 3 4 5 7 7 7 7 8 9 9 9 9 10 10 10 10 10 10 11 12 14 15 16 16 16 17 17 17 17 16 16 16 16 16 16 17 17 17 16 16
0 0 1 2 3 5 6 7 7 7 7 8 9 9 9 10 10 10 9 9 10 11 12 14 15 16 16 16 17 17 16 16 16 16 16 16 16 17 17 17 16 15 14
1 0 -0 1 2 4 6 6 7 6 6 7 8 9 9 10 10 10 9 9 10 11 13 14 15 16 16 16 16 16 16 16 16 16 16 17 17 17 17 16 15 13 12
1 0 -0 -0 1 3 5 6 7 7 6 6 8 9 9 10 10 10 9 9 10 11 13 15 15 15 16 15 15 15 15 16 16 16 17 17 17 16 16 15 13 10 9
1 1 0 -0 0 2 5 6 7 7 7 7 8 9 9 10 10 10 9 9 10 12 13 15 15 15 15 15 15 15 15 16 16 16 16 16 16 16 15 13 11 8 7
1 1 1 0 1 2 5 6 7 7 8 8 8 9 9 10 10 10 10 10 11 12 14 15 15 15 15 15 15 15 15 16 16 16 16 16 16 15 14 11 9 7 6
1 1 1 0 1 3 5 6 7 8 8 8 8 9 9 10 9 9 10 11 12 13 14 15 15 15 15 15 15 16 16 16 16 16 16 16 15 14 12 9 7 6 5
1 1 1 1 2 3 5 7 8 8 9 9 8 9 9 9 9 9 10 11 12 14 14 14 14 15 15 15 15 16 16 16 16 16 16 16 15 12 10 7 6 4 4
1 1 1 2 2 4 6 8 8 8 9 9 9 9 9 9 9 9 11 12 13 13 14 14 14 14 15 15 15 15 15 15 16 16 16 16 13 10 7 5 4 3 3
2 2 2 3 3 4 6 8 9 8 8 9 9 9 10 9 9 10 11 13 13 13 14 14 14 14 14 15 15 15 15 15 16 17 16 15 11 7 5 4 3 3 3
2 3 3 4 4 5 7 9 9 8 8 9 9 10 10 10 10 10 11 12 13 14 14 14 14 14 14 14 14 15 15 16 17 17 16 14 10 6 4 3 3 2 2
3 3 4 4 5 5 6 8 9 9 8 9 9 10 10 10 10 10 11 12 13 14 14 14 14 14 14 14 14 15 16 16 17 17 16 13 9 6 4 3 3 3 2
4 4 4 5 5 6 6 7 8 9 9 9 9 10 10 10 10 11 11 12 13 14 14 14 14 14 14 14 15 15 16 17 17 17 16 13 9 6 4 3 3 3 3
4 4 5 5 6 6 6 7 8 9 9 9 10 10 10 10 11 11 12 13 14 14 14 15 15 15 15 15 15 16 17 17 17 17 16 13 9 6 4 3 3 3 3
4 5 5 6 7 7 7 7 8 9 10 10 11 11 11 11 11 12 13 13 14 14 14 15 15 15 15 15 16 17 17 17 18 18 16 12 9 6 4 3 3 3 3
5 5 6 7 8 8 7 8 9 10 10 11 11 12 12 12 12 13 13 14 14 14 15 15 15 15 15 16 16 17 18 18 18 18 16 13 10 7 5 4 3 3 3
6 6 7 8 9 8 8 9 9 10 11 11 12 12 13 13 13 13 14 14 15 15 15 15 15 16 16 16 17 18 18 18 18 18 16 13 11 8 6 5 4 3 3
6 7 8 9 9 9 9 10 10 11 12 12 13 13 14 14 14 14 14 15 15 15 15 16 16 16 16 17 17 18 18 18 18 17 16 14 11 9 7 6 4 4 4
8 8 9 9 9 9 10 11 11 12 12 13 13 14 14 14 14 14 14 15 15 15 16 16 16 17 17 17 17 18 18 17 17 17 16 15 12 10 9 7 5 4 4
9 10 10 10 10 10 11 12 12 13 13 13 14 14 14 14 14 14 15 15 16 16 16 16 17 17 17 17 17 17 17 17 18 18 17 16 13 11 10 8 6 5 5
10 10 10 10 11 12 12 13 13 14 14 14 14 15 15 15 15 15 15 16 16 16 17 17 17 17 17 17 17 17 17 17 18 18 18 17 15 13 11 9 7 6 5
11 11 11 11 11 12 13 14 14 14 14 14 15 15 15 15 15 16 16 16 17 17 17 17 17 17 17 17 17 17 17 17 18 18 18 18 17 15 12 11 9 7 6
11 11 11 11 11 12 12 13 14 14 14 15 15 15 15 16 16 16 16 16 16 17 17 17 17 17 17 17 17 17 17 17 18 18 18 18 18 16 14 11 10 8 7
12 12 12 12 12 13 13 14 15 15 15 16 16 16 16 16 17 17 17 16 16 17 17 17 17 17 17 17 17 17 17 18 18 18 19 19 18 17 14 12 10 9 8
13 13 13 13 14 14 15 15 16 16 16 16 16 17 17 17 17 17 17 17 16 16 17 17 17 17 17 17 17 18 18 18 18 19 19 19 18 17 14 12 10 9 8